Location: Winthrop
(48.4780°N, 120.1850°W)
Time: 17:50:06
(UTC-07:00)

Explorer 7 - Pass Details

Date: 01 February 2023
Orbit: 478 x 657 km, 50.3° (Epoch: 30 March)

Event Time Altitude Azimuth Distance (km) Brightness Sun altitude
Rises 12:51:56 0° 231° (SW) 2,686 11.1 24.0°
Reaches altitude 10° 12:54:08 10° 225° (SW) 1,828 10.5 23.9°
Maximum altitude 12:58:11 50° 150° (SSE) 743 8.4 23.8°
Drops below altitude 10° 13:02:29 10° 76° (ENE) 1,950 9.4 23.7°
Sets 13:04:54 0° 71° (ENE) 2,888 10.2 23.6°
